WZZ123 EPGD-ENHD

Flight info

Callsign WZZ123
Flight time N/A
Altitude 36000
Route VAPOS N133 PENOR DCT KOTAM DCT VADIN DCT GOTEX DCT AMSEV DCT RIVEX
Aircraft A21N/M-SDE3FGHIRWY/LB1

Departure

Time 2026-05-05 17:04
Airport Gdańsk Lech Wałęsa Airport (EPGD)

Arrival

Time N/A
Airport Haugesund Airport, Karmøy (ENHD)
Time Latitude Longitude Altitude Speed Heading
2026-05-05 16:57 54.38029 18.46517 449 ft 0 kts 202°
2026-05-05 16:58 54.38026 18.46515 449 ft 1 kts 202°
2026-05-05 16:58 54.38004 18.46499 448 ft 2 kts 202°
2026-05-05 16:58 54.38003 18.46499 448 ft 0 kts 202°
2026-05-05 16:58 54.37993 18.46486 448 ft 2 kts 228°
2026-05-05 16:59 54.37988 18.46437 448 ft 5 kts 279°
2026-05-05 16:59 54.38002 18.46355 448 ft 8 kts 289°
2026-05-05 16:59 54.38027 18.46250 448 ft 10 kts 292°
2026-05-05 16:59 54.38056 18.46131 448 ft 11 kts 293°
2026-05-05 17:00 54.38084 18.46021 448 ft 6 kts 293°
2026-05-05 17:00 54.38103 18.45947 448 ft 7 kts 291°
2026-05-05 17:00 54.38124 18.45858 448 ft 8 kts 291°
2026-05-05 17:00 54.38142 18.45775 448 ft 3 kts 289°
2026-05-05 17:01 54.38148 18.45737 448 ft 3 kts 274°
2026-05-05 17:01 54.38136 18.45678 448 ft 7 kts 231°
2026-05-05 17:01 54.38081 18.45609 447 ft 11 kts 207°
2026-05-05 17:01 54.38043 18.45518 446 ft 10 kts 277°
2026-05-05 17:02 54.38065 18.45399 446 ft 9 kts 301°
2026-05-05 17:02 54.38116 18.45319 446 ft 8 kts 311°
2026-05-05 17:02 54.38104 18.45259 446 ft 8 kts 150°
2026-05-05 17:02 54.38071 18.45352 446 ft 9 kts 112°
2026-05-05 17:03 54.38049 18.45441 446 ft 13 kts 112°
2026-05-05 17:03 54.37920 18.45967 446 ft 87 kts 113°
2026-05-05 17:03 54.37586 18.47315 454 ft 155 kts 111°
2026-05-05 17:03 54.37140 18.49125 976 ft 168 kts 110°
2026-05-05 17:04 54.36696 18.50979 1698 ft 175 kts 109°
2026-05-05 17:04 54.36198 18.52980 2252 ft 192 kts 111°
2026-05-05 17:04 54.35645 18.55161 2833 ft 209 kts 111°
2026-05-05 17:04 54.35046 18.57537 3393 ft 229 kts 111°
2026-05-05 17:05 54.34403 18.60111 4137 ft 240 kts 112°